| time (UTC) | temp C | wind direction | speed KPH | gust KPH | rain 1hr cm | rain 24hr cm | rain mn cm | humidity % | barometer mb |
| 20260505094833 | 17 | 213 | 6.4 | 9.7 | 0.00 | 0.00 | 0.00 | 64 | |
| 20260505094331 | 17 | 215 | 6.4 | 11.3 | 0.00 | 0.00 | 0.00 | 63 | |
| 20260505093826 | 17 | 160 | 8.0 | 9.7 | 0.00 | 0.00 | 0.00 | 63 | |
| 20260505093324 | 17 | 189 | 3.2 | 12.9 | 0.00 | 0.00 | 0.00 | 63 | |
| 20260505092820 | 17 | 162 | 6.4 | 11.3 | 0.00 | 0.00 | 0.00 | 62 | |
| 20260505092319 | 17 | 167 | 8.0 | 12.9 | 0.00 | 0.00 | 0.00 | 61 | |
| 20260505091816 | 18 | 171 | 4.8 | 11.3 | 0.00 | 0.00 | 0.00 | 61 | |
| 20260505091314 | 18 | 190 | 9.7 | 11.3 | 0.00 | 0.00 | 0.00 | 60 | |
| 20260505090811 | 18 | 175 | 4.8 | 12.9 | 0.00 | 0.00 | 0.00 | 59 | |
| 20260505090310 | 18 | 208 | 8.0 | 12.9 | 0.00 | 0.00 | 0.00 | 59 | |
| 20260505085806 | 18 | 193 | 6.4 | 11.3 | 0.00 | 0.00 | 0.00 | 58 | |
| 20260505085305 | 18 | 196 | 6.4 | 11.3 | 0.00 | 0.00 | 0.00 | 57 | |
| 20260505084801 | 18 | 230 | 4.8 | 9.7 | 0.00 | 0.00 | 0.00 | 57 | |
| 20260505084301 | 19 | 152 | 3.2 | 9.7 | 0.00 | 0.00 | 0.00 | 56 | |
| 20260505083757 | 19 | 169 | 6.4 | 6.4 | 0.00 | 0.00 | 0.00 | 56 | |
| 20260505083253 | 19 | 213 | 4.8 | 9.7 | 0.00 | 0.00 | 0.00 | 54 | |
| 20260505082750 | 19 | 184 | 3.2 | 9.7 | 0.00 | 0.00 | 0.00 | 55 | |
| 20260505082247 | 19 | 186 | 8.0 | 14.5 | 0.00 | 0.00 | 0.00 | 53 | |
| 20260505081743 | 19 | 138 | 4.8 | 9.7 | 0.00 | 0.00 | 0.00 | 52 | |
| 20260505081240 | 19 | 148 | 4.8 | 6.4 | 0.00 | 0.00 | 0.00 | 53 | |
| 20260505080737 | 19 | 125 | 6.4 | 9.7 | 0.00 | 0.00 | 0.00 | 51 | |
| 20260505080232 | 19 | 174 | 8.0 | 16.1 | 0.00 | 0.00 | 0.00 | 50 | |
| 20260505075729 | 19 | 216 | 8.0 | 14.5 | 0.00 | 0.00 | 0.00 | 50 | |
| 20260505075226 | 19 | 198 | 12.9 | 16.1 | 0.00 | 0.00 | 0.00 | 49 | |
| 20260505074723 | 20 | 168 | 8.0 | 12.9 | 0.00 | 0.00 | 0.00 | 47 | |
| 20260505074220 | 20 | 222 | 11.3 | 14.5 | 0.00 | 0.00 | 0.00 | 48 | |
| 20260505073718 | 20 | 218 | 8.0 | 14.5 | 0.00 | 0.00 | 0.00 | 47 | |
| 20260505073215 | 20 | 84 | 3.2 | 9.7 | 0.00 | 0.00 | 0.00 | 49 | |
| 20260505072711 | 20 | 202 | 11.3 | 14.5 | 0.00 | 0.00 | 0.00 | 48 | |
| 20260505072208 | 20 | 198 | 6.4 | 12.9 | 0.00 | 0.00 | 0.00 | 49 | |
| 20260505071703 | 20 | 211 | 9.7 | 12.9 | 0.00 | 0.00 | 0.00 | 48 | |
| 20260505071201 | 20 | 218 | 6.4 | 12.9 | 0.00 | 0.00 | 0.00 | 50 | |
| 20260505070658 | 20 | 223 | 9.7 | 14.5 | 0.00 | 0.00 | 0.00 | 48 | |
| 20260505070154 | 20 | 196 | 6.4 | 12.9 | 0.00 | 0.00 | 0.00 | 49 | |
| 20260505065650 | 20 | 222 | 9.7 | 17.7 | 0.00 | 0.00 | 0.00 | 48 | |
| 20260505065147 | 20 | 224 | 8.0 | 16.1 | 0.00 | 0.00 | 0.00 | 50 | |
| 20260505064644 | 20 | 188 | 6.4 | 17.7 | 0.00 | 0.00 | 0.00 | 51 | |
| 20260505064142 | 20 | 184 | 9.7 | 16.1 | 0.00 | 0.00 | 0.00 | 49 | |
| 20260505063640 | 20 | 222 | 11.3 | 16.1 | 0.00 | 0.00 | 0.00 | 50 | |
| 20260505063136 | 20 | 202 | 8.0 | 14.5 | 0.00 | 0.00 | 0.00 | 49 | |
| 20260505062632 | 21 | 186 | 22.5 | 27.4 | 0.00 | 0.00 | 0.00 | 48 | |
| 20260505062129 | 21 | 249 | 9.7 | 12.9 | 0.00 | 0.00 | 0.00 | 49 | |
| 20260505061626 | 21 | 140 | 9.7 | 20.9 | 0.00 | 0.00 | 0.00 | 47 | |
| 20260505061125 | 20 | 170 | 12.9 | 20.9 | 0.00 | 0.00 | 0.00 | 48 | |
| 20260505060622 | 21 | 166 | 16.1 | 17.7 | 0.00 | 0.00 | 0.00 | 48 | |
| 20260505060119 | 20 | 213 | 9.7 | 11.3 | 0.00 | 0.00 | 0.00 | 49 | |
| 20260505055614 | 21 | 256 | 9.7 | 22.5 | 0.00 | 0.00 | 0.00 | 49 | |
| 20260505055110 | 21 | 175 | 8.0 | 17.7 | 0.00 | 0.00 | 0.00 | 47 | |
| 20260505054608 | 21 | 157 | 8.0 | 20.9 | 0.00 | 0.00 | 0.00 | 46 | |
| 20260505054106 | 21 | 149 | 14.5 | 24.1 | 0.00 | 0.00 | 0.00 | 45 | |
| 20260505053603 | 21 | 157 | 8.0 | 20.9 | 0.00 | 0.00 | 0.00 | 46 | |
| 20260505053059 | 21 | 145 | 12.9 | 20.9 | 0.00 | 0.00 | 0.00 | 46 | |
| 20260505052556 | 21 | 153 | 14.5 | 17.7 | 0.00 | 0.00 | 0.00 | 46 | |
| 20260505052054 | 21 | 143 | 6.4 | 20.9 | 0.00 | 0.00 | 0.00 | 46 | |
| 20260505051551 | 21 | 184 | 9.7 | 20.9 | 0.00 | 0.00 | 0.00 | 45 | |
| 20260505051049 | 21 | 91 | 11.3 | 14.5 | 0.00 | 0.00 | 0.00 | 45 | |
| 20260505050546 | 21 | 144 | 16.1 | 22.5 | 0.00 | 0.00 | 0.00 | 44 | |
| 20260505041514 | 21 | 149 | 9.7 | 20.9 | 0.00 | 0.00 | 0.00 | 41 | |
| 20260505041012 | 21 | 118 | 11.3 | 16.1 | 0.00 | 0.00 | 0.00 | 40 | |
| 20260505040509 | 21 | 103 | 6.4 | 11.3 | 0.00 | 0.00 | 0.00 | 38 | |
| 20260505040006 | 20 | 163 | 8.0 | 14.5 | 0.00 | 0.00 | 0.00 | 37 | |
| 20260505035502 | 20 | 132 | 4.8 | 16.1 | 0.00 | 0.00 | 0.00 | 37 | |
| 20260505034959 | 21 | 138 | 6.4 | 16.1 | 0.00 | 0.00 | 0.00 | 35 | |
| 20260505034455 | 21 | 137 | 6.4 | 11.3 | 0.00 | 0.00 | 0.00 | 34 | |
| 20260505033952 | 20 | 128 | 6.4 | 9.7 | 0.00 | 0.00 | 0.00 | 35 | |
| 20260505033449 | 20 | 137 | 11.3 | 12.9 | 0.00 | 0.00 | 0.00 | 35 | |
| 20260505032948 | 20 | 140 | 9.7 | 14.5 | 0.00 | 0.00 | 0.00 | 34 | |
| 20260505032444 | 20 | 122 | 3.2 | 14.5 | 0.00 | 0.00 | 0.00 | 32 | |
| 20260505031940 | 21 | 120 | 1.6 | 12.9 | 0.00 | 0.00 | 0.00 | 28 | |
| 20260505031438 | 20 | 133 | 3.2 | 12.9 | 0.00 | 0.00 | 0.00 | 28 | |
| 20260505030935 | 20 | 86 | 3.2 | 6.4 | 0.00 | 0.00 | 0.00 | 33 | |
| 20260505030431 | 20 | 142 | 11.3 | 14.5 | 0.00 | 0.00 | 0.00 | 33 | |
| 20260505025926 | 20 | 148 | 3.2 | 11.3 | 0.00 | 0.00 | 0.00 | 29 | |
| 20260505025423 | 20 | 143 | 1.6 | 12.9 | 0.00 | 0.00 | 0.00 | 30 | |
| 20260505024922 | 19 | 123 | 3.2 | 9.7 | 0.00 | 0.00 | 0.00 | 31 | |
| 20260505024419 | 20 | 132 | 9.7 | 11.3 | 0.00 | 0.00 | 0.00 | 30 | |
| 20260505023916 | 20 | 154 | 9.7 | 14.5 | 0.00 | 0.00 | 0.00 | 31 | |
| 20260505023413 | 20 | 110 | 8.0 | 9.7 | 0.00 | 0.00 | 0.00 | 30 | |
| 20260505022910 | 20 | 130 | 8.0 | 14.5 | 0.00 | 0.00 | 0.00 | 31 | |
| 20260505022408 | 20 | 146 | 9.7 | 11.3 | 0.00 | 0.00 | 0.00 | 31 | |
| 20260505021905 | 20 | 145 | 1.6 | 11.3 | 0.00 | 0.00 | 0.00 | 34 | |
| 20260505021401 | 19 | 150 | 4.8 | 11.3 | 0.00 | 0.00 | 0.00 | 35 | |
| 20260505020857 | 19 | 111 | 1.6 | 11.3 | 0.00 | 0.00 | 0.00 | 37 | |
| 20260505020353 | 19 | 137 | 4.8 | 14.5 | 0.00 | 0.00 | 0.00 | 34 | |
| 20260505015850 | 19 | 158 | 8.0 | 16.1 | 0.00 | 0.00 | 0.00 | 35 | |
| 20260505015347 | 19 | 123 | 4.8 | 6.4 | 0.00 | 0.00 | 0.00 | 37 | |
| 20260505014844 | 19 | 123 | 8.0 | 12.9 | 0.00 | 0.00 | 0.00 | 36 | |
| 20260505014341 | 18 | 67 | 1.6 | 9.7 | 0.00 | 0.00 | 0.00 | 33 | |
| 20260505013837 | 18 | 136 | 4.8 | 14.5 | 0.00 | 0.00 | 0.00 | 36 | |
| 20260505013335 | 19 | 165 | 9.7 | 11.3 | 0.00 | 0.00 | 0.00 | 37 | |
| 20260505012833 | 18 | 81 | 6.4 | 14.5 | 0.00 | 0.00 | 0.00 | 35 | |
| 20260505012331 | 18 | 56 | 8.0 | 14.5 | 0.00 | 0.00 | 0.00 | 35 | |
| 20260505011826 | 18 | 97 | 8.0 | 16.1 | 0.00 | 0.00 | 0.00 | 36 | |
| 20260505011324 | 18 | 174 | 1.6 | 9.7 | 0.00 | 0.00 | 0.00 | 38 | |
| 20260505010819 | 18 | 154 | 12.9 | 17.7 | 0.00 | 0.00 | 0.00 | 35 | |
| 20260505010315 | 19 | 118 | 6.4 | 12.9 | 0.00 | 0.00 | 0.00 | 35 | |
| 20260505005812 | 19 | 112 | 3.2 | 11.3 | 0.00 | 0.00 | 0.00 | 35 | |
| 20260505005309 | 18 | 64 | 8.0 | 17.7 | 0.00 | 0.00 | 0.00 | 34 | |
| 20260505004806 | 19 | 143 | 11.3 | 20.9 | 0.00 | 0.00 | 0.00 | 32 | |
| 20260505004302 | 18 | 68 | 6.4 | 16.1 | 0.00 | 0.00 | 0.00 | 31 | |
| 20260505003800 | 18 | 135 | 8.0 | 17.7 | 0.00 | 0.00 | 0.00 | 30 | |
| 20260505003257 | 18 | 128 | 8.0 | 11.3 | 0.00 | 0.00 | 0.00 | 30 | |
| 20260505002753 | 18 | 132 | 3.2 | 11.3 | 0.00 | 0.00 | 0.00 | 32 | |
| 20260505002251 | 18 | 80 | 3.2 | 11.3 | 0.00 | 0.00 | 0.00 | 33 | |
| 20260505001749 | 17 | 110 | 3.2 | 11.3 | 0.00 | 0.00 | 0.00 | 32 | |
| 20260505001246 | 17 | 79 | 11.3 | 17.7 | 0.00 | 0.00 | 0.00 | 33 | |
| 20260505000742 | 17 | 65 | 11.3 | 17.7 | 0.00 | 0.00 | 0.00 | 32 | |
| 20260505000240 | 17 | 19 | 8.0 | 22.5 | 0.00 | 0.00 | 0.00 | 33 | |
| 20260504235737 | 17 | 59 | 9.7 | 25.7 | 0.00 | 0.00 | 0.00 | 33 | |
| 20260504235233 | 17 | 24 | 12.9 | 22.5 | 0.00 | 0.00 | 0.00 | 33 | |
| 20260504234730 | 17 | 56 | 14.5 | 20.9 | 0.00 | 0.00 | 0.00 | 36 | |
| 20260504234228 | 16 | 15 | 12.9 | 20.9 | 0.00 | 0.00 | 0.00 | 36 | |
| 20260504233724 | 16 | 61 | 16.1 | 22.5 | 0.00 | 0.00 | 0.00 | 36 | |
| 20260504233219 | 16 | 15 | 8.0 | 16.1 | 0.00 | 0.00 | 0.00 | 40 | |
| 20260504232717 | 16 | 71 | 4.8 | 14.5 | 0.00 | 0.00 | 0.00 | 41 | |
| 20260504232214 | 16 | 88 | 11.3 | 17.7 | 0.00 | 0.00 | 0.00 | 41 | |
| 20260504231710 | 16 | 87 | 4.8 | 12.9 | 0.00 | 0.00 | 0.00 | 43 | |
| 20260504231207 | 15 | 48 | 6.4 | 20.9 | 0.00 | 0.00 | 0.00 | 43 | |
| 20260504230703 | 15 | 41 | 9.7 | 12.9 | 0.00 | 0.00 | 0.00 | 46 | |
| 20260504230202 | 15 | 357 | 4.8 | 14.5 | 0.00 | 0.00 | 0.00 | 47 | |
| 20260504225700 | 15 | 24 | 11.3 | 20.9 | 0.00 | 0.00 | 0.00 | 48 | |
| 20260504225155 | 15 | 46 | 9.7 | 16.1 | 0.00 | 0.00 | 0.00 | 49 | |
| 20260504224653 | 15 | 45 | 9.7 | 14.5 | 0.00 | 0.00 | 0.00 | 49 | |
| 20260504224150 | 14 | 45 | 14.5 | 17.7 | 0.00 | 0.00 | 0.00 | 48 | |
| 20260504223647 | 15 | 84 | 9.7 | 12.9 | 0.00 | 0.00 | 0.00 | 49 | |
| 20260504223142 | 14 | 61 | 6.4 | 11.3 | 0.00 | 0.00 | 0.00 | 49 | |
| 20260504222640 | 14 | 28 | 8.0 | 12.9 | 0.00 | 0.00 | 0.00 | 52 | |
| 20260504222136 | 14 | 43 | 11.3 | 22.5 | 0.00 | 0.00 | 0.00 | 52 | |
| 20260504221634 | 13 | 4 | 6.4 | 11.3 | 0.00 | 0.00 | 0.00 | 54 | |
| 20260504221131 | 13 | 6 | 17.7 | 20.9 | 0.00 | 0.00 | 0.00 | 56 | |
| 20260504220627 | 13 | 44 | 11.3 | 14.5 | 0.00 | 0.00 | 0.00 | 57 | |
| 20260504220125 | 13 | 16 | 9.7 | 16.1 | 0.00 | 0.00 | 0.00 | 57 | |
| 20260504215621 | 13 | 32 | 14.5 | 16.1 | 0.00 | 0.00 | 0.00 | 59 | |
| 20260504215119 | 13 | 44 | 9.7 | 12.9 | 0.00 | 0.00 | 0.00 | 59 | |
| 20260504214614 | 12 | 10 | 9.7 | 12.9 | 0.00 | 0.00 | 0.00 | 60 | |
| 20260504214110 | 12 | 46 | 11.3 | 14.5 | 0.00 | 0.00 | 0.00 | 60 | |
| 20260504213607 | 12 | 340 | 6.4 | 12.9 | 0.00 | 0.00 | 0.00 | 62 | |
| 20260504213104 | 12 | 9 | 8.0 | 9.7 | 0.00 | 0.00 | 0.00 | 63 | |
| 20260504212600 | 12 | 346 | 12.9 | 14.5 | 0.00 | 0.00 | 0.00 | 61 | |
| 20260504212057 | 12 | 3 | 9.7 | 11.3 | 0.00 | 0.00 | 0.00 | 63 | |
| 20260504211554 | 12 | 2 | 6.4 | 11.3 | 0.00 | 0.00 | 0.00 | 62 | |
| 20260504211051 | 12 | 12 | 11.3 | 12.9 | 0.00 | 0.00 | 0.00 | 61 | |
| 20260504210548 | 11 | 24 | 4.8 | 11.3 | 0.00 | 0.00 | 0.00 | 62 | |
| 20260504210045 | 11 | 58 | 6.4 | 6.4 | 0.00 | 0.00 | 0.00 | 64 | |
| 20260504205543 | 11 | 13 | 3.2 | 4.8 | 0.00 | 0.00 | 0.00 | 65 | |
| 20260504205041 | 11 | 19 | 4.8 | 6.4 | 0.00 | 0.00 | 0.00 | 66 | |
| 20260504204538 | 10 | 97 | 0.0 | 3.2 | 0.00 | 0.00 | 0.00 | 68 | |
| 20260504204037 | 10 | 114 | 0.0 | 1.6 | 0.00 | 0.00 | 0.00 | 69 | |
| 20260504203534 | 10 | 131 | 0.0 | 1.6 | 0.00 | 0.00 | 0.00 | 70 | |
| 20260504203032 | 10 | 99 | 0.0 | 3.2 | 0.00 | 0.00 | 0.00 | 70 | |
| 20260504202527 | 10 | 20 | 3.2 | 3.2 | 0.00 | 0.00 | 0.00 | 69 | |
| 20260504202025 | 10 | 70 | 3.2 | 4.8 | 0.00 | 0.00 | 0.00 | 69 | |
| 20260504201521 | 10 | 22 | 4.8 | 6.4 | 0.00 | 0.00 | 0.00 | 68 | |
| 20260504201019 | 10 | 83 | 3.2 | 4.8 | 0.00 | 0.00 | 0.00 | 68 | |
| 20260504200515 | 10 | 95 | 1.6 | 3.2 | 0.00 | 0.00 | 0.00 | 67 | |
| 20260504200012 | 11 | 12 | 6.4 | 9.7 | 0.00 | 0.00 | 0.00 | 67 | |
| 20260504195508 | 11 | 9 | 9.7 | 11.3 | 0.00 | 0.00 | 0.00 | 67 | |
| 20260504195005 | 11 | 27 | 8.0 | 11.3 | 0.00 | 0.00 | 0.00 | 68 | |
| 20260504194501 | 11 | 16 | 9.7 | 12.9 | 0.00 | 0.00 | 0.00 | 67 | |
| 20260504193957 | 11 | 20 | 6.4 | 11.3 | 0.00 | 0.00 | 0.00 | 68 | |
| 20260504193454 | 11 | 3 | 11.3 | 12.9 | 0.00 | 0.00 | 0.00 | 68 | |
| 20260504192953 | 11 | 11 | 11.3 | 12.9 | 0.00 | 0.00 | 0.00 | 68 | |
| 20260504192450 | 11 | 357 | 9.7 | 14.5 | 0.00 | 0.00 | 0.00 | 68 | |
| 20260504191949 | 11 | 61 | 8.0 | 24.1 | 0.00 | 0.00 | 0.00 | 68 | |
| 20260504191446 | 11 | 9 | 11.3 | 12.9 | 0.00 | 0.00 | 0.00 | 69 | |
| 20260504190941 | 11 | 19 | 8.0 | 11.3 | 0.00 | 0.00 | 0.00 | 69 | |
| 20260504190437 | 11 | 38 | 6.4 | 12.9 | 0.00 | 0.00 | 0.00 | 70 | |
| 20260504185934 | 11 | 52 | 6.4 | 14.5 | 0.00 | 0.00 | 0.00 | 71 | |
| 20260504185432 | 11 | 39 | 6.4 | 12.9 | 0.00 | 0.00 | 0.00 | 71 | |
| 20260504184927 | 11 | 12 | 6.4 | 9.7 | 0.00 | 0.00 | 0.00 | 73 | |
| 20260504184423 | 11 | 24 | 4.8 | 12.9 | 0.00 | 0.00 | 0.00 | 73 | |
| 20260504183919 | 11 | 9 | 9.7 | 16.1 | 0.00 | 0.00 | 0.00 | 74 | |
| 20260504183417 | 11 | 24 | 6.4 | 16.1 | 0.00 | 0.00 | 0.00 | 74 | |
| 20260504182915 | 11 | 30 | 8.0 | 14.5 | 0.00 | 0.00 | 0.00 | 74 | |
| 20260504182411 | 11 | 0 | 8.0 | 11.3 | 0.00 | 0.00 | 0.00 | 74 | |
| 20260504181908 | 11 | 19 | 9.7 | 14.5 | 0.00 | 0.00 | 0.00 | 74 | |
| 20260504181406 | 11 | 6 | 14.5 | 17.7 | 0.00 | 0.00 | 0.00 | 74 | |
| 20260504180904 | 11 | 359 | 12.9 | 17.7 | 0.00 | 0.00 | 0.00 | 74 | |
| 20260504180403 | 11 | 0 | 9.7 | 12.9 | 0.00 | 0.00 | 0.00 | 74 | |
| 20260504175900 | 12 | 99 | 1.6 | 4.8 | 0.00 | 0.00 | 0.00 | 73 | |
| 20260504175356 | 12 | 24 | 9.7 | 16.1 | 0.00 | 0.00 | 0.00 | 73 | |
| 20260504174855 | 12 | 359 | 14.5 | 17.7 | 0.00 | 0.00 | 0.00 | 73 | |
| 20260504174352 | 12 | 5 | 12.9 | 14.5 | 0.00 | 0.00 | 0.00 | 73 | |
| 20260504173849 | 12 | 29 | 4.8 | 11.3 | 0.00 | 0.00 | 0.00 | 73 | |
| 20260504173345 | 12 | 15 | 9.7 | 14.5 | 0.00 | 0.00 | 0.00 | 73 | |
| 20260504172843 | 12 | 86 | 6.4 | 14.5 | 0.00 | 0.00 | 0.00 | 73 | |
| 20260504172339 | 12 | 25 | 4.8 | 11.3 | 0.00 | 0.00 | 0.00 | 72 | |
| 20260504171835 | 12 | 14 | 9.7 | 11.3 | 0.00 | 0.00 | 0.00 | 72 | |
| 20260504171332 | 12 | 72 | 8.0 | 12.9 | 0.00 | 0.00 | 0.00 | 72 | |
| 20260504170830 | 12 | 48 | 8.0 | 11.3 | 0.00 | 0.00 | 0.00 | 72 | |
| 20260504170326 | 12 | 52 | 3.2 | 11.3 | 0.00 | 0.00 | 0.00 | 74 | |
| 20260504160245 | 13 | 7 | 6.4 | 14.5 | 0.00 | 0.00 | 0.00 | 69 | |
| 20260504150710 | 13 | 9 | 11.3 | 16.1 | 0.00 | 0.00 | 0.00 | 68 | |
| 20260504150207 | 13 | 317 | 9.7 | 16.1 | 0.00 | 0.00 | 0.00 | 68 | |
| 20260504141136 | 13 | 44 | 8.0 | 12.9 | 0.00 | 0.10 | 0.10 | 70 | |
| 20260504140633 | 13 | 54 | 14.5 | 17.7 | 0.00 | 0.10 | 0.10 | 70 | |
| 20260504140128 | 13 | 63 | 9.7 | 17.7 | 0.00 | 0.10 | 0.10 | 70 | |
| 20260504130556 | 14 | 38 | 9.7 | 14.5 | 0.00 | 0.10 | 0.10 | 70 | |
| 20260504110444 | 15 | 93 | 11.3 | 14.5 | 0.00 | 0.10 | 0.10 | 71 | |
| 20260504100406 | 15 | 58 | 9.7 | 11.3 | 0.00 | 0.10 | 0.10 | 70 |